This demonstration page uses our WeatherBlox Daily Observations layout. Learn more.

Left ArrowRight Arrow

41.55636, -103.73856

Hourly Observations for February 19, 2015

Temp ( °F °C ) Dew Point ( °F °C ) Humidity (%) Winds ( mph kmh ) Pressure ( in mb ) Visibility ( mi km ) Precip ( " mm )
12:53 am 00:53 Clear 23 -5 19 -7.2 85 85 E 7 11 30.12 1020 10 16.0934 0 0
1:53 am 01:53 Clear 23 -5 19 -7.2 85 85 E 6 9 30.09 1019 10 16.0934 0 0
2:53 am 02:53 Clear 24 -4.4 19 -7.2 81 81 E 6 9 30.06 1018 10 16.0934 0 0
3:53 am 03:53 Clear 22 -5.6 19 -7.2 89 89 Calm 30.06 1018 10 16.0934 0 0
4:53 am 04:53 Clear 21 -6.1 18 -7.8 88 88 Calm 30.04 1017 10 16.0934 0 0
5:53 am 05:53 Clear 20 -6.7 18 -7.8 92 92 Calm 30.05 1018 10 16.0934 0 0
6:53 am 06:53 Partly Cloudy 22 -5.6 20 -6.7 92 92 Calm 30.04 1017 10 16.0934 0 0
7:53 am 07:53 Sunny 25 -3.9 21 -6.1 85 85 NW 3 6 30.05 1018 10 16.0934 0 0
8:53 am 08:53 Sunny 28 -2.2 22 -5.6 78 78 Calm 30.06 1018 10 16.0934 0 0
9:53 am 09:53 Sunny 31 -0.6 23 -5 72 72 Calm 30.05 1018 10 16.0934 0 0
10:53 am 10:53 Sunny 42 5.6 26 -3.3 53 53 W 7 11 30.01 1016 10 16.0934 0 0
11:53 am 11:53 Sunny 56 13.3 26 -3.3 32 32 WNW 17 28 29.96 1014 10 16.0934 0 0
12:53 pm 12:53 Sunny 60 15.6 24 -4.4 25 25 WNW 13 20 29.9 1012 10 16.0934 0 0
1:53 pm 13:53 Sunny 61 16.1 24 -4.4 24 24 WNW 16 26 29.87 1011 10 16.0934 0 0
2:53 pm 14:53 Sunny 62 16.7 23 -5 22 22 NW 17 28 29.85 1011 10 16.0934 0 0
3:53 pm 15:53 Sunny 62 16.7 23 -5 22 22 NNW 12 19 29.84 1010 10 16.0934 0 0
4:53 pm 16:53 Sunny 58 14.4 24 -4.4 27 27 NNW 10 17 29.85 1011 10 16.0934 0 0
5:53 pm 17:53 Clear 46 7.8 26 -3.3 46 46 NE 9 15 29.9 1012 10 16.0934 0 0
6:53 pm 18:53 Clear 41 5 23 -5 49 49 NNE 10 17 29.92 1013 10 16.0934 0 0
7:53 pm 19:53 Clear 40 4.4 22 -5.6 49 49 NNE 6 9 29.94 1014 10 16.0934 0 0
8:53 pm 20:53 Clear 38 3.3 22 -5.6 52 52 Calm 29.96 1015 10 16.0934 0 0
9:53 pm 21:53 Clear 34 1.1 23 -5 64 64 N 7 11 29.96 1015 10 16.0934 0 0
10:53 pm 22:53 Clear 34 1.1 24 -4.4 67 67 NNW 6 9 29.93 1013 10 16.0934 0 0
11:53 pm 23:53 Partly Cloudy 32 0 24 -4.4 73 73 NW 7 11 29.88 1012 10 16.0934 0 0

Powered by AerisWeather